Wetbulb
56.98 57.03 57.07 57.29 57.78 57.87 58.00 58.29 58.71 59.08 59.60 59.76 60.12 60.42 60.53 60.38 59.75 61.40 57.56 59.48 61.94 64.93 62.83 62.03 61.20 59.39 57.94 55.37 55.72 55.33 49.99 48.78 49.93 49.89 51.74 54.62 53.45 55.66 56.86 56.16 56.87 57.85 58.72 59.34 60.46
56.31 56.50 56.52 56.51 56.84 57.16 57.27 57.55 58.04 58.66 59.12 59.75 60.06 59.96 60.16 60.13 62.91 58.18 60.80 66.12 64.56 66.28 61.99 59.30 57.99 56.78 55.47 54.20 54.28 51.75 50.20 50.44 53.24 53.11 53.14 54.00 53.85 54.79 54.27 54.82 55.04 56.86 58.45 59.51 60.39
55.89 55.93 56.05 56.11 56.33 56.76 56.81 57.15 57.62 58.28 58.85 59.21 59.59 59.76 59.62 60.75 61.13 57.75 65.37 66.47 65.99 64.13 61.89 59.30 59.19 58.01 54.38 55.25 54.17 53.05 50.81 52.56 51.93 53.33 54.46 53.50 53.13 54.78 53.76 52.96 56.35 55.84 57.84 58.95 59.75
55.30 55.45 55.44 55.67 55.87 55.95 56.34 56.80 57.21 57.87 58.18 58.52 58.64 59.44 59.83 62.46 51.97 61.37 67.40 67.08 66.66 64.28 60.67 58.18 57.56 56.13 54.80 53.31 54.38 51.39 52.74 52.33 52.84 53.28 52.89 52.47 54.42 53.31 54.17 57.07 58.60 58.64 59.80 60.53 60.39
55.54 55.01 55.05 55.14 55.33 55.69 55.88 56.49 56.80 57.11 57.49 57.90 58.48 59.41 62.03 58.66 55.53 64.08 67.56 65.70 63.14 60.54 57.63 56.90 55.22 55.62 53.99 54.05 54.21 53.17 53.01 53.42 54.47 54.24 54.43 54.96 53.31 53.36 55.89 58.38 59.73 60.32 60.74 61.13 62.38
55.25 55.28 54.69 54.57 54.95 55.21 55.71 56.19 56.41 56.37 56.83 57.73 58.75 58.83 61.36 53.61 60.17 62.04 61.42 60.74 60.01 59.46 57.87 58.29 56.02 56.12 53.59 53.73 53.28 55.07 54.13 53.95 54.74 55.19 55.14 53.69 53.46 55.04 56.84 58.84 58.99 59.77 60.12 61.05 61.46
54.89 54.84 54.88 54.43 54.61 54.96 55.56 55.96 55.91 56.43 57.20 58.19 59.28 61.88 59.44 55.19 60.88 61.81 61.43 59.36 59.52 58.70 57.41 58.57 58.64 57.36 55.71 53.78 55.24 54.34 51.82 53.37 53.82 54.56 54.28 55.42 51.89 52.97 57.48 58.37 57.65 58.42 59.48 60.47 61.25
54.67 54.33 54.47 54.59 54.65 54.98 55.42 55.53 56.16 58.14 58.21 58.83 59.80 62.45 56.27 60.58 62.84 61.26 60.91 59.65 59.62 59.56 59.21 59.50 59.55 57.64 56.74 56.57 54.70 52.96 52.59 49.93 53.81 53.72 54.55 53.76 50.04 55.89 57.82 57.39 56.71 57.42 58.50 59.18 60.56
54.30 53.94 54.14 54.67 54.48 55.01 55.00 55.20 58.26 57.66 58.58 59.54 61.96 62.14 54.33 59.77 58.62 59.50 60.39 57.43 58.32 58.63 59.36 58.61 59.09 56.43 55.95 53.74 52.18 51.82 49.28 49.23 51.02 53.84 53.50 52.64 50.72 56.46 57.03 56.58 56.39 57.54 58.39 58.64 59.71
53.87 53.59 53.56 54.13 54.33 54.70 54.78 55.37 58.41 58.32 61.15 62.88 62.37 58.39 57.08 55.33 57.93 58.15 59.71 59.04 57.09 57.32 57.27 56.73 56.27 54.56 54.11 52.11 47.23 49.20 48.56 49.23 48.56 52.47 52.53 51.34 51.07 55.29 56.32 55.59 55.68 57.10 58.00 58.60 59.25
53.81 53.34 53.23 53.64 54.67 54.84 56.32 61.34 59.02 59.15 60.04 57.18 56.29 56.03 55.77 58.02 59.16 57.14 58.05 57.00 57.54 56.76 53.35 53.70 52.60 49.42 50.50 51.42 51.23 50.31 48.78 48.25 50.34 52.31 50.51 50.50 51.07 52.85 56.20 56.36 55.51 56.69 57.51 57.89 58.73
53.19 53.26 53.46 53.26 54.25 54.70 58.60 59.34 58.73 59.76 55.17 56.50 56.50 56.11 57.34 57.93 53.92 55.50 58.12 54.53 53.63 50.91 52.42 52.52 49.97 50.93 52.03 51.08 50.26 49.72 48.78 49.00 50.66 51.66 51.10 50.56 50.38 52.75 54.34 55.58 56.31 56.54 56.99 57.60 58.65
52.21 52.50 53.00 52.89 53.61 56.96 60.48 58.49 61.99 61.57 56.06 53.67 55.72 55.32 55.22 56.97 53.69 53.78 55.91 54.09 52.01 50.22 49.84 49.18 49.99 52.06 50.40 50.06 49.10 50.13 48.64 48.87 48.13 50.67 51.70 50.72 49.65 51.79 53.71 55.73 56.29 57.21 57.82 58.18 58.07
51.95 51.96 52.15 51.75 55.61 61.54 59.57 61.32 61.87 62.23 52.55 51.15 52.67 55.46 56.06 56.19 52.47 56.21 56.69 54.63 52.79 49.40 49.53 50.27 51.23 49.93 50.04 48.52 49.61 47.61 51.42 49.19 48.52 47.99 44.82 50.98 42.70 49.89 53.39 53.96 55.11 55.79 55.93 57.08 57.97
51.53 51.98 51.74 50.75 60.20 58.75 60.15 62.21 61.79 61.64 44.47 52.96 53.77 58.11 55.99 53.33 54.48 54.17 57.30 55.07 51.26 50.18 50.05 49.09 48.18 48.39 48.33 48.08 49.50 48.22 50.84 49.28 49.42 47.88 47.50 47.01 44.96 48.13 53.07 51.54 52.76 54.40 56.08 56.84 57.48
51.20 51.35 51.30 60.37 62.24 59.88 61.37 62.16 61.15 50.28 43.26 50.44 53.52 51.69 52.07 53.04 53.07 54.87 54.39 55.84 54.49 51.11 50.16 49.80 51.60 50.03 49.22 49.35 49.15 50.47 50.08 50.92 50.68 48.84 42.70 47.20 45.82 46.19 47.03 50.45 54.12 55.37 55.63 56.23 56.78
51.11 50.71 50.65 59.61 59.86 62.13 61.85 59.06 49.88 44.91 53.38 49.57 49.34 51.53 51.76 51.17 51.45 51.90 51.15 51.34 49.25 46.65 47.07 47.94 48.70 49.95 50.33 48.80 51.84 51.43 49.89 44.08 41.50 42.27 41.82 48.35 45.42 48.37 51.85 53.35 53.63 53.36 54.81 56.13 57.09
49.50 48.92 55.64 59.90 64.15 62.94 60.32 53.44 44.49 48.73 50.62 52.27 50.58 51.02 49.50 51.39 51.40 50.31 49.36 48.58 50.20 48.96 47.19 44.82 43.41 47.76 49.82 48.61 48.63 48.54 48.41 44.61 33.30 38.25 41.79 47.51 42.86 47.62 53.04 54.63 55.31 55.55 55.47 56.52 56.49
48.25 57.77 58.44 63.22 63.85 63.34 56.17 47.67 48.40 49.67 51.73 50.21 50.28 48.40 49.02 50.20 49.58 49.25 49.35 48.96 49.87 50.32 46.84 45.63 44.28 48.81 48.50 50.51 51.48 50.40 49.47 50.01 44.67 46.44 42.14 44.73 47.47 51.67 53.02 53.23 53.92 54.36 54.83 54.95 55.63
51.44 55.51 58.26 64.71 64.46 60.64 52.81 47.09 51.11 52.66 52.27 51.90 47.55 49.75 47.54 49.14 46.82 47.59 48.69 50.36 49.17 50.40 51.84 49.64 43.86 48.24 48.89 50.45 51.80 50.49 51.68 45.55 47.01 36.08 35.61 41.53 43.33 45.32 47.63 50.12 52.42 52.93 53.37 54.68 55.67
52.80 53.90 61.94 63.91 63.28 56.44 49.41 51.08 52.37 53.66 53.43 50.84 49.84 49.07 48.33 47.48 47.94 47.20 47.60 50.81 51.22 49.96 51.47 50.48 47.43 47.34 47.62 47.35 48.75 49.19 48.35 48.38 46.96 45.95 39.13 36.75 42.70 50.51 50.18 52.24 52.49 53.58 53.88 54.48 54.97
52.02 50.67 61.30 62.41 53.08 54.15 51.51 53.24 50.22 52.69 53.87 52.36 52.20 50.71 48.94 48.31 47.28 46.69 46.97 49.52 52.64 51.87 48.22 51.99 49.09 44.66 46.23 49.70 50.15 49.48 48.36 47.33 44.24 41.34 45.22 43.12 42.43 53.93 53.33 53.35 54.30 52.98 54.14 54.88 55.50
48.22 50.97 59.74 60.11 49.69 51.45 54.46 52.95 53.37 51.91 52.22 51.86 50.63 51.12 51.25 48.75 46.00 48.02 48.67 53.70 52.69 51.30 49.42 51.77 46.96 42.49 44.29 47.97 49.87 46.91 48.91 49.71 49.28 47.88 42.83 40.69 42.24 52.91 53.43 53.65 53.29 53.41 54.10 54.60 54.76
48.31 49.45 55.11 55.83 54.94 53.22 52.99 52.19 51.12 53.43 52.62 53.12 51.91 51.90 50.19 48.54 50.55 48.19 48.40 51.98 52.44 51.68 52.05 50.95 47.38 45.37 43.08 44.48 47.64 45.25 47.12 48.23 48.05 43.35 43.56 44.87 44.92 49.35 51.12 52.07 52.88 53.46 54.16 54.19 54.73
51.01 51.90 52.51 50.21 52.37 52.22 53.08 52.34 50.57 49.82 52.48 53.16 51.41 51.04 50.09 47.75 48.31 47.56 49.85 51.24 51.70 51.17 51.03 50.18 44.81 46.85 46.91 46.89 46.74 46.11 45.61 46.53 46.02 46.77 43.15 45.84 46.16 48.50 51.37 51.83 52.75 53.65 53.67 53.61 53.73
47.56 49.16 51.82 49.42 50.31 49.76 48.45 49.94 49.31 51.17 51.20 49.71 49.72 51.29 51.45 49.22 50.05 47.79 49.27 49.89 49.30 52.12 50.67 52.11 45.52 46.78 44.66 46.97 46.12 44.28 46.30 46.71 46.97 47.23 47.37 47.50 47.45 51.55 53.27 53.57 52.53 52.61 53.31 52.52 52.87
49.93 50.49 48.14 46.43 47.75 46.82 47.59 50.10 49.76 51.89 52.11 52.54 51.45 50.28 49.70 51.15 53.05 53.29 53.17 52.82 51.93 50.13 49.92 49.49 47.64 45.29 41.28 45.86 44.78 42.38 46.35 47.81 48.21 49.16 48.69 45.26 49.00 52.51 51.64 51.91 52.20 52.54 52.86 53.06 53.44
MSLP
1017.70 1017.33 1016.97 1016.60 1016.22 1015.90 1015.59 1015.22 1014.86 1014.57 1014.30 1014.04 1013.80 1013.40 1012.90 1012.42 1012.07 1011.48 1009.70 1010.42 1010.17 1010.14 1010.10 1008.04 1007.60 1006.93 1006.49 1005.40 1005.39 1004.66 1002.88 1000.46 999.98 1000.38 1000.72 1002.24 1002.33 1002.88 1003.38 1002.85 1003.15 1003.39 1003.72 1004.77 1004.94
1017.92 1017.48 1017.06 1016.63 1016.25 1015.88 1015.52 1015.18 1014.81 1014.44 1014.08 1013.81 1013.54 1013.28 1012.76 1012.49 1011.05 1009.28 1010.48 1010.38 1010.30 1009.93 1008.74 1007.08 1006.38 1006.43 1005.22 1004.96 1004.73 1003.97 1002.16 1000.50 1001.02 1001.46 1001.74 1002.49 1002.99 1003.04 1003.36 1003.00 1003.27 1003.77 1004.69 1005.42 1005.28
1018.04 1017.54 1017.11 1016.69 1016.28 1015.89 1015.48 1015.08 1014.72 1014.35 1013.98 1013.64 1013.24 1012.86 1012.40 1012.02 1009.90 1008.93 1010.26 1010.37 1010.30 1009.84 1008.06 1007.29 1006.69 1005.76 1004.76 1004.56 1004.20 1003.46 1002.50 1002.29 1003.10 1003.48 1003.29 1003.21 1003.58 1003.68 1003.66 1003.43 1003.84 1004.68 1004.94 1005.63 1005.79
1018.20 1017.64 1017.06 1016.59 1016.18 1015.80 1015.44 1015.04 1014.61 1014.22 1013.84 1013.55 1013.21 1012.72 1012.14 1010.84 1008.45 1009.12 1010.13 1010.27 1010.14 1009.20 1007.40 1006.59 1005.98 1005.20 1004.41 1004.14 1004.46 1003.75 1003.89 1003.68 1003.66 1004.36 1004.29 1004.07 1003.90 1004.16 1004.77 1005.17 1005.82 1006.12 1006.40 1006.58 1006.37
1018.21 1017.65 1017.12 1016.56 1016.00 1015.61 1015.20 1014.85 1014.49 1014.10 1013.67 1013.36 1013.05 1012.71 1011.71 1009.41 1008.29 1009.34 1009.98 1009.92 1009.33 1007.91 1007.21 1006.38 1005.59 1005.10 1004.37 1004.36 1004.62 1004.14 1004.08 1004.38 1004.60 1004.76 1004.68 1004.64 1004.80 1004.66 1005.52 1006.59 1006.63 1006.94 1007.14 1007.41 1007.77
1018.14 1017.56 1017.00 1016.43 1015.88 1015.41 1014.98 1014.59 1014.24 1013.88 1013.46 1013.13 1012.82 1012.67 1011.16 1008.11 1008.38 1008.62 1008.73 1008.63 1008.01 1007.35 1007.09 1006.48 1006.04 1005.88 1005.20 1004.86 1004.69 1004.32 1004.35 1004.46 1004.52 1004.35 1004.90 1004.89 1004.92 1005.61 1006.46 1006.90 1007.12 1007.48 1007.70 1008.12 1008.45
1018.11 1017.42 1016.78 1016.22 1015.61 1015.10 1014.65 1014.27 1013.89 1013.55 1013.20 1012.92 1012.64 1012.00 1009.56 1007.88 1008.03 1008.22 1008.14 1007.82 1007.95 1007.69 1006.90 1006.95 1006.72 1006.00 1005.70 1004.97 1005.26 1004.91 1004.61 1004.50 1004.54 1004.50 1004.58 1004.86 1005.20 1005.54 1006.64 1006.97 1007.24 1007.80 1008.21 1008.74 1009.17
1018.01 1017.32 1016.62 1015.98 1015.33 1014.76 1014.28 1013.89 1013.50 1013.08 1012.90 1012.74 1012.58 1011.20 1008.19 1008.03 1007.88 1007.72 1007.71 1007.60 1007.96 1007.82 1007.58 1007.34 1007.02 1006.20 1005.70 1005.52 1005.18 1004.51 1004.26 1003.22 1003.81 1004.65 1004.91 1005.58 1003.98 1005.76 1006.87 1006.90 1007.24 1007.95 1008.40 1008.82 1009.32
1017.88 1017.16 1016.44 1015.76 1015.11 1014.50 1013.98 1013.57 1013.12 1012.92 1012.67 1012.52 1011.94 1010.16 1007.65 1008.68 1007.78 1007.78 1007.47 1007.24 1007.63 1007.75 1007.66 1007.71 1006.88 1005.82 1005.66 1004.78 1003.76 1003.61 1002.54 1002.87 1003.74 1004.79 1004.88 1005.23 1004.30 1005.69 1006.85 1007.11 1007.29 1007.78 1008.21 1008.83 1009.25
1017.75 1016.94 1016.21 1015.47 1014.84 1014.28 1013.78 1013.52 1013.08 1012.89 1012.35 1011.26 1010.15 1009.05 1007.60 1007.20 1007.64 1007.84 1007.75 1007.59 1007.38 1007.37 1007.06 1006.84 1005.93 1005.00 1004.07 1003.73 1002.96 1002.72 1002.98 1003.37 1003.84 1004.37 1005.08 1004.74 1004.50 1005.02 1006.32 1006.92 1007.28 1007.80 1008.37 1008.88 1009.50
1017.59 1016.80 1015.96 1015.25 1014.57 1014.13 1013.44 1012.80 1012.47 1011.29 1009.85 1008.12 1007.46 1007.34 1006.97 1007.52 1008.03 1007.45 1007.61 1007.43 1007.27 1006.54 1005.70 1006.07 1005.16 1004.74 1005.23 1005.49 1005.30 1004.80 1004.49 1004.09 1004.18 1004.85 1005.65 1004.94 1004.59 1004.92 1005.53 1006.95 1007.14 1007.74 1008.51 1009.04 1009.50
1017.57 1016.62 1015.81 1015.06 1014.40 1013.98 1013.43 1010.06 1010.16 1009.74 1008.17 1007.97 1007.46 1007.25 1007.53 1007.68 1007.45 1007.47 1007.62 1006.91 1006.52 1005.70 1006.21 1005.98 1005.23 1006.23 1006.33 1006.28 1005.94 1005.43 1004.93 1004.31 1004.66 1005.09 1005.74 1005.12 1004.57 1004.60 1004.92 1006.44 1007.17 1008.07 1008.52 1009.05 1009.43
1017.78 1016.69 1015.77 1014.88 1014.24 1013.56 1010.98 1010.43 1009.74 1009.36 1007.89 1007.40 1007.00 1006.64 1007.09 1007.37 1006.93 1007.23 1007.35 1006.96 1006.41 1005.88 1005.83 1005.45 1006.18 1006.68 1006.67 1006.35 1006.10 1005.35 1005.24 1005.00 1005.30 1005.27 1005.18 1004.72 1004.20 1003.69 1005.40 1006.66 1007.69 1008.45 1008.98 1009.10 1009.26
1017.89 1016.91 1015.92 1014.75 1014.12 1010.98 1010.14 1010.12 1009.48 1009.60 1007.41 1006.48 1006.64 1006.14 1006.70 1006.74 1007.15 1007.66 1007.65 1007.43 1006.54 1006.23 1006.34 1005.80 1006.91 1006.92 1006.58 1006.66 1006.77 1005.58 1005.86 1006.30 1006.07 1005.68 1004.38 1004.25 1003.99 1003.89 1005.12 1006.58 1007.34 1008.08 1008.56 1008.56 1008.64
1017.88 1016.96 1016.04 1015.96 1013.38 1010.42 1010.44 1009.92 1009.58 1009.55 1006.45 1005.71 1005.58 1005.96 1006.08 1006.49 1006.98 1007.51 1007.90 1007.53 1006.67 1006.50 1006.89 1006.36 1006.85 1007.06 1006.80 1007.01 1007.38 1006.25 1006.97 1006.73 1006.33 1005.88 1005.39 1004.45 1004.18 1003.52 1004.96 1005.56 1006.90 1008.73 1008.27 1008.34 1008.53
1017.68 1016.81 1016.27 1013.52 1012.43 1010.57 1010.25 1010.10 1009.78 1008.50 1005.74 1005.87 1005.53 1005.86 1005.97 1006.39 1006.84 1007.21 1007.70 1007.76 1007.51 1007.06 1007.04 1006.72 1007.60 1007.55 1007.48 1007.66 1007.62 1007.42 1007.00 1006.29 1006.02 1005.52 1004.76 1004.03 1004.88 1004.58 1006.60 1007.53 1007.57 1007.47 1008.03 1008.25 1008.34
1017.37 1016.23 1016.38 1013.76 1010.60 1010.45 1010.38 1009.96 1008.54 1006.58 1005.54 1005.71 1005.63 1005.53 1005.50 1006.08 1006.69 1007.04 1007.12 1007.00 1006.83 1006.62 1006.29 1007.04 1007.06 1007.66 1008.12 1007.17 1007.17 1006.84 1006.30 1006.01 1005.25 1004.50 1003.87 1005.00 1005.29 1005.21 1006.60 1007.18 1007.83 1008.10 1008.09 1008.11 1008.17
1016.96 1015.45 1013.50 1012.46 1010.73 1010.84 1010.39 1009.40 1007.33 1005.08 1004.99 1005.81 1005.80 1005.65 1005.36 1005.86 1006.32 1006.80 1006.97 1006.73 1007.49 1007.19 1006.16 1005.82 1006.46 1007.18 1007.95 1007.67 1007.16 1007.06 1007.37 1007.90 1007.83 1006.17 1005.29 1005.21 1004.81 1006.24 1007.18 1007.97 1008.24 1008.12 1008.25 1008.06 1007.93
1016.47 1013.01 1011.44 1010.74 1010.89 1010.96 1009.99 1007.93 1005.78 1004.77 1004.98 1005.98 1006.06 1005.71 1005.51 1006.01 1006.76 1006.60 1006.76 1006.38 1007.04 1007.73 1007.16 1006.59 1006.52 1007.73 1008.20 1008.14 1007.95 1007.04 1007.08 1008.44 1008.81 1008.33 1007.55 1005.40 1005.69 1006.41 1007.36 1007.72 1008.11 1008.26 1008.26 1008.12 1008.12
1016.49 1013.02 1010.36 1010.28 1010.83 1010.59 1009.36 1007.08 1005.64 1005.88 1006.09 1006.09 1005.66 1005.50 1005.16 1005.50 1006.54 1006.22 1006.17 1007.07 1007.93 1008.54 1008.43 1007.71 1007.47 1007.57 1007.88 1008.34 1008.22 1007.90 1008.32 1008.51 1009.04 1009.61 1008.27 1005.84 1006.06 1006.73 1007.88 1008.66 1008.68 1008.59 1008.25 1007.84 1007.86
1016.24 1011.97 1010.26 1010.42 1010.72 1009.72 1007.76 1006.08 1005.38 1005.96 1006.48 1006.34 1005.88 1005.59 1005.99 1005.51 1006.27 1005.77 1006.02 1007.56 1008.38 1008.66 1008.81 1008.41 1008.50 1007.52 1008.16 1007.42 1006.57 1007.36 1007.46 1008.29 1009.36 1009.53 1009.90 1008.95 1007.30 1007.94 1007.82 1008.58 1008.86 1008.60 1007.97 1007.72 1007.78
1015.25 1011.36 1010.12 1010.24 1009.88 1008.20 1006.83 1006.04 1006.07 1005.98 1006.93 1006.69 1006.68 1006.10 1006.23 1006.29 1006.44 1006.50 1006.32 1007.26 1008.64 1008.75 1008.66 1009.10 1008.90 1007.63 1006.82 1006.78 1007.61 1007.48 1007.40 1008.03 1008.66 1009.46 1010.06 1009.75 1008.78 1008.07 1008.21 1008.67 1008.46 1008.41 1007.65 1007.67 1007.67
1015.44 1012.00 1009.86 1010.31 1008.45 1007.22 1006.45 1006.30 1006.36 1006.08 1006.74 1006.77 1006.75 1006.67 1006.84 1006.65 1006.91 1006.80 1007.14 1008.18 1009.11 1009.42 1009.31 1009.52 1009.11 1008.11 1006.86 1007.16 1007.80 1007.68 1007.55 1008.10 1008.67 1009.38 1009.35 1009.42 1008.90 1007.96 1007.65 1008.18 1008.26 1007.68 1007.52 1007.50 1007.57
1016.20 1011.75 1009.72 1009.72 1008.84 1008.20 1006.58 1006.22 1006.33 1006.34 1006.35 1006.74 1006.70 1007.03 1007.16 1006.99 1007.12 1007.00 1007.39 1008.36 1009.29 1009.72 1010.64 1011.04 1009.96 1008.98 1008.09 1006.82 1006.87 1007.11 1007.33 1007.75 1008.12 1008.42 1008.30 1008.16 1008.32 1007.13 1007.10 1007.48 1007.32 1007.46 1007.56 1007.55 1007.42
1015.89 1012.74 1012.48 1009.68 1008.94 1008.84 1007.97 1007.19 1006.38 1006.38 1006.88 1006.88 1006.91 1007.18 1007.11 1007.05 1006.91 1007.21 1007.43 1008.06 1009.35 1010.30 1010.79 1011.14 1010.19 1009.23 1008.33 1007.71 1007.28 1007.06 1006.98 1007.06 1007.14 1007.36 1007.28 1007.32 1007.28 1007.12 1007.76 1008.04 1007.38 1007.58 1007.68 1007.55 1007.46
1016.40 1014.86 1013.34 1012.03 1011.09 1010.17 1009.10 1008.23 1007.38 1006.54 1006.87 1007.00 1007.36 1007.24 1007.26 1007.26 1007.11 1006.90 1007.36 1007.87 1008.40 1009.32 1010.39 1010.61 1010.24 1009.48 1008.61 1007.82 1007.41 1006.77 1006.46 1006.35 1006.51 1006.65 1006.39 1006.46 1006.55 1007.53 1007.77 1007.31 1007.48 1007.73 1007.73 1007.62 1007.88
1016.84 1016.26 1015.48 1012.78 1011.25 1010.30 1009.09 1008.50 1007.91 1007.54 1007.18 1007.56 1007.72 1007.82 1007.74 1007.79 1007.85 1007.91 1008.41 1008.84 1009.14 1009.36 1009.54 1010.26 1010.24 1009.61 1008.47 1007.68 1006.71 1006.12 1005.58 1005.40 1005.44 1005.62 1005.58 1005.84 1006.32 1006.69 1007.07 1007.49 1007.76 1007.82 1008.27 1007.96 1007.91
Wind_Speed
17 16 15 15 13 13 13 13 13 12 12 12 11 11 12 13 12 9 8 7 4 3 6 8 7 7 9 5 10 11 11 12 11 8 7 7 11 5 2 7 1 5 11 9 4
17 17 16 16 15 14 14 13 13 13 13 12 11 10 12 11 13 8 5 2 4 10 13 7 5 7 8 5 5 11 10 6 11 4 2 6 7 4 6 8 6 8 9 3 5
18 18 17 16 16 14 14 14 13 13 13 12 13 13 14 14 15 11 6 4 6 13 8 4 5 11 6 7 4 6 10 9 2 4 7 2 5 3 7 7 11 7 10 9 4
18 18 18 17 16 15 14 14 14 13 13 12 12 13 16 10 2 10 6 5 9 14 10 6 7 10 7 7 3 9 3 3 7 4 6 7 6 1 5 11 7 5 5 5 5
19 19 18 17 16 15 15 14 14 13 13 12 11 10 9 10 10 10 5 8 13 9 5 4 4 4 9 2 5 12 5 4 3 4 6 6 6 5 6 3 5 6 6 8 8
19 19 19 18 17 15 14 14 13 13 12 11 11 11 11 4 6 6 3 6 7 8 4 7 5 7 3 6 8 3 3 7 4 8 4 10 4 6 8 3 5 6 7 9 9
19 20 20 19 18 16 15 13 12 12 11 10 9 8 13 9 2 3 7 3 3 4 6 2 5 11 3 5 1 7 9 9 8 8 6 8 7 9 5 3 2 5 5 7 8
20 20 20 19 18 16 15 14 13 10 7 8 7 10 2 4 1 7 2 6 1 2 5 5 5 5 8 2 6 11 13 13 13 5 8 9 7 12 5 4 2 2 5 2 6
22 20 20 19 18 16 13 13 7 3 5 7 8 10 9 6 8 4 4 3 3 3 1 4 10 6 7 13 11 9 12 5 10 2 6 7 9 14 3 3 2 4 1 4 4
24 23 21 20 18 14 11 7 2 4 7 7 8 9 7 6 5 1 3 3 1 4 10 11 8 12 9 7 8 8 5 7 7 11 8 11 11 14 6 5 5 2 2 1 5
25 24 23 21 16 11 6 6 8 8 12 9 12 6 10 7 4 5 2 5 4 9 5 2 13 8 10 6 9 9 6 8 2 3 6 13 10 10 12 6 7 4 1 4 5
27 26 25 23 18 10 8 6 8 7 6 4 3 3 5 3 5 4 6 9 6 5 4 10 3 5 7 4 6 6 8 9 1 4 6 14 12 11 6 6 1 1 2 5 8
26 27 26 24 18 6 2 7 8 5 9 9 8 11 12 10 2 4 7 1 7 5 5 7 11 3 4 6 7 8 9 8 9 12 15 17 16 16 8 6 4 6 3 4 6
26 26 26 29 6 1 1 6 6 4 8 15 11 6 8 5 7 0 2 8 7 8 4 4 6 4 1 1 7 12 5 7 10 12 11 5 11 12 16 12 11 6 4 5 7
26 26 26 12 12 9 6 7 7 5 7 17 14 8 3 9 8 8 3 6 10 5 8 8 2 3 5 5 7 9 6 11 12 12 13 16 8 11 11 13 11 6 5 7 12
27 27 25 5 9 5 6 4 6 8 7 8 7 12 13 9 6 6 7 6 6 9 5 6 2 3 6 6 6 9 12 14 12 13 11 8 3 10 4 5 14 8 8 9 13
29 29 16 10 6 6 6 8 8 10 8 10 9 10 14 8 7 8 8 11 9 9 12 7 9 3 5 13 8 12 10 6 7 9 3 6 4 6 5 5 6 5 8 12 14
31 30 4 11 6 6 6 10 11 5 7 2 4 10 11 8 10 8 9 9 5 10 8 7 10 7 3 5 10 3 7 4 4 8 14 8 8 8 5 3 1 7 11 14 14
32 7 9 8 9 5 9 11 15 4 3 7 10 12 13 6 7 10 12 9 4 3 8 5 4 6 1 6 7 5 3 8 3 10 8 11 9 11 6 2 6 14 13 13 16
11 10 11 8 6 7 9 16 13 2 3 9 14 11 11 14 11 10 11 5 5 4 5 4 5 6 7 6 5 8 6 5 5 4 7 11 8 9 5 2 6 14 16 14 16
7 6 8 3 7 9 12 14 14 6 9 9 12 7 11 7 10 11 4 10 5 8 4 2 5 9 4 11 8 9 12 4 3 5 3 5 2 2 4 9 11 13 14 16 18
6 7 6 5 9 10 13 16 3 8 8 7 8 9 9 9 10 12 6 4 8 2 6 6 6 9 10 8 6 8 8 4 3 6 7 6 9 7 4 3 11 14 15 17 17
7 9 4 5 9 12 13 6 6 11 13 10 9 8 7 8 8 9 5 12 8 8 2 3 6 8 14 12 7 7 8 7 7 6 11 3 8 6 11 11 11 14 16 16 17
6 5 7 8 12 11 13 13 14 12 11 10 8 7 8 10 10 5 8 8 9 7 10 3 9 9 7 14 6 5 9 9 9 9 11 11 13 15 9 11 13 15 16 18 17
6 1 6 4 2 8 12 10 15 11 12 12 10 12 11 9 11 11 9 11 10 10 5 6 12 13 15 16 13 13 13 13 15 15 14 13 16 14 14 15 13 16 17 17 18
6 6 7 11 12 9 8 13 13 14 12 14 15 12 12 11 9 5 8 8 9 15 10 9 10 9 14 14 15 18 16 16 16 16 19 13 15 14 15 11 15 17 17 17 19
6 6 6 8 9 8 10 12 8 11 6 10 8 12 10 7 7 4 4 7 7 8 9 12 9 10 13 16 9 13 16 16 16 17 12 11 9 10 11 13 15 17 15 18 19
Wind_Direction
1 357 353 350 346 343 339 336 332 328 321 319 319 312 308 308 307 215 52 47 1 289 287 249 212 224 227 226 250 248 259 252 230 269 136 130 241 114 95 261 319 33 38 38 24
357 354 351 347 343 339 335 332 328 324 320 319 314 308 302 317 262 93 108 121 297 285 265 286 174 203 209 217 213 246 252 284 35 14 16 120 278 73 252 198 179 180 137 77 313
353 350 347 344 340 336 331 327 324 320 317 318 316 315 309 310 259 91 157 198 257 280 283 276 273 260 225 247 166 199 292 63 95 24 323 303 229 190 286 273 37 350 330 27 309
351 348 345 340 336 332 327 322 319 315 313 312 312 312 316 267 327 79 149 210 259 273 272 276 223 235 251 221 216 250 325 233 144 133 248 252 303 261 308 32 19 49 36 14 20
344 344 342 337 333 329 323 319 314 309 304 303 305 312 292 211 70 115 162 207 252 275 331 305 303 276 249 250 221 254 165 206 164 215 250 276 251 285 94 10 72 78 65 67 42
340 338 337 336 331 326 318 312 307 300 294 293 297 305 245 210 105 128 226 222 262 287 350 329 357 339 338 274 262 49 241 201 209 212 149 238 176 191 119 189 106 78 64 56 60
339 336 334 334 329 325 318 312 303 291 280 277 286 282 266 88 132 167 217 330 332 300 289 38 333 271 329 190 20 228 230 208 204 205 142 274 180 208 115 177 127 89 75 73 54
339 337 335 332 328 324 318 315 305 280 252 253 272 262 56 115 311 233 170 167 117 226 294 298 279 297 277 45 213 225 229 208 144 183 126 247 232 113 183 185 156 15 117 35 75
339 338 335 331 328 321 315 311 298 239 221 230 239 227 136 148 208 89 310 45 112 193 173 288 252 291 198 234 206 181 253 206 143 179 343 233 304 127 195 211 254 246 340 69 18
340 338 337 333 329 317 310 288 287 226 215 214 271 249 164 163 116 84 92 302 38 190 206 226 229 232 208 270 339 1 290 177 280 140 216 263 258 162 159 271 219 273 325 45 1
339 339 338 336 333 317 283 196 200 188 213 298 179 305 115 107 188 209 184 212 239 233 245 280 264 11 356 339 327 317 292 285 330 36 275 275 296 273 160 221 220 214 145 345 343
337 339 337 336 329 320 270 280 28 333 237 193 192 265 118 170 174 199 235 247 264 299 205 228 116 358 310 288 283 256 268 257 312 210 268 281 279 277 198 190 324 233 306 339 323
337 336 335 331 324 267 1 21 320 310 259 166 182 184 179 207 197 144 266 306 292 254 326 329 43 346 251 196 256 228 298 335 316 320 274 250 262 217 133 159 160 206 234 283 323
335 335 334 327 295 360 186 340 310 342 263 157 194 177 181 226 194 358 306 303 229 327 304 346 89 289 225 159 294 294 73 292 285 280 289 333 292 224 157 182 181 208 251 310 337
333 331 329 330 313 260 9 318 328 240 269 133 175 92 175 212 105 161 209 244 283 1 263 88 156 283 235 18 310 321 343 292 287 285 293 273 231 239 167 201 123 338 265 333 334
329 327 333 202 234 318 292 298 247 233 246 151 173 202 194 191 201 117 221 233 323 262 265 55 83 264 1 289 271 311 273 260 242 247 255 222 303 92 82 170 175 185 2 329 338
324 317 318 304 300 350 305 240 227 244 105 158 204 196 215 171 195 223 210 212 257 224 195 173 174 142 272 277 183 239 271 320 244 205 306 121 268 70 79 87 30 359 311 341 332
322 310 235 256 295 291 250 235 253 297 173 89 214 211 222 197 229 185 234 227 206 268 275 245 177 181 101 324 334 334 319 91 261 339 322 294 246 96 74 62 285 275 345 330 338
313 293 259 225 221 255 248 231 244 308 218 191 210 224 210 206 271 202 220 260 84 268 283 227 175 135 141 288 274 114 221 31 272 282 277 255 140 133 164 169 31 350 334 334 339
313 290 262 129 208 221 238 252 282 264 256 214 217 208 238 185 207 208 191 151 173 285 291 84 276 184 107 253 190 300 54 205 148 289 299 314 350 74 75 179 354 342 315 342 333
262 270 99 205 194 224 234 242 239 162 218 224 241 245 252 236 216 230 197 118 190 180 273 324 260 143 213 206 246 177 204 199 305 342 262 304 42 251 37 11 343 299 325 342 336
291 255 107 179 218 229 237 239 337 199 208 216 274 251 246 231 232 246 227 221 182 261 238 71 300 272 242 73 293 296 301 268 269 251 193 246 280 358 14 290 308 315 337 336 335
291 284 167 237 238 233 226 249 223 219 206 215 229 230 211 230 233 243 216 102 183 214 325 147 227 258 219 191 203 242 231 228 261 272 267 261 268 235 325 334 299 323 331 336 339
282 280 188 209 262 295 290 211 218 236 216 217 233 216 205 226 203 224 218 142 202 225 68 349 272 257 265 328 337 251 228 265 258 273 255 256 268 295 314 331 337 339 337 334 325
240 4 8 280 202 307 268 280 241 198 225 201 213 225 213 226 215 222 206 163 195 141 218 242 263 261 258 266 277 273 264 266 248 254 270 278 287 305 6 317 338 335 336 319 347
306 345 357 292 284 277 249 250 250 249 193 218 236 217 237 230 242 245 223 224 226 175 221 207 267 266 280 278 263 266 264 262 256 268 268 271 274 32 284 339 340 337 323 345 341
343 278 262 293 263 251 251 246 255 274 189 277 280 246 219 243 263 343 354 325 308 275 233 233 244 258 266 277 276 263 252 256 251 247 271 281 315 312 345 345 343 325 328 341 339